TimeCST,TemperatureF,Dew PointF,Humidity,Sea Level PressureIn,VisibilityMPH,Wind Direction,Wind SpeedMPH,Gust SpeedMPH,PrecipitationIn,Events,Conditions,WindDirDegrees,DateUTC
12:15 AM,35.1,31.5,87,29.84,7.0,West,17.3,33.4,N/A,Snow,Light Snow,260,2014-01-17 06:15:00
12:35 AM,34.9,31.6,88,29.83,10.0,WSW,10.4,16.1,N/A,,Mostly Cloudy,250,2014-01-17 06:35:00
12:55 AM,34.9,29.8,82,29.83,10.0,West,11.5,-,N/A,,Overcast,270,2014-01-17 06:55:00
1:15 AM,35.2,23.4,62,29.84,10.0,WNW,11.5,24.2,N/A,,Overcast,290,2014-01-17 07:15:00
1:35 AM,34.7,22.6,61,29.84,10.0,WNW,17.3,20.7,N/A,,Overcast,300,2014-01-17 07:35:00
1:55 AM,33.8,23.0,65,29.84,10.0,WNW,12.7,-,N/A,,Overcast,290,2014-01-17 07:55:00
2:15 AM,33.8,22.8,64,29.85,10.0,WNW,15.0,21.9,N/A,,Overcast,300,2014-01-17 08:15:00
2:35 AM,32.9,23.9,69,29.86,10.0,WNW,17.3,23.0,N/A,,Overcast,290,2014-01-17 08:35:00
2:55 AM,31.8,22.5,68,29.88,10.0,WNW,18.4,29.9,N/A,,Overcast,300,2014-01-17 08:55:00
3:15 AM,30.4,22.5,72,29.89,10.0,WNW,20.7,26.5,N/A,,Overcast,290,2014-01-17 09:15:00
3:35 AM,28.4,18.3,66,29.90,10.0,WNW,18.4,25.3,N/A,,Overcast,290,2014-01-17 09:35:00
3:55 AM,27.5,18.3,68,29.91,10.0,NW,15.0,20.7,N/A,,Overcast,320,2014-01-17 09:55:00
4:15 AM,25.2,16.0,68,29.92,10.0,NW,12.7,24.2,N/A,,Overcast,320,2014-01-17 10:15:00
4:35 AM,23.4,13.1,65,29.94,7.0,WNW,18.4,26.5,N/A,Snow,Light Snow,290,2014-01-17 10:35:00
4:55 AM,22.6,11.8,63,29.95,10.0,WNW,16.1,25.3,N/A,,Overcast,300,2014-01-17 10:55:00
5:15 AM,22.1,8.2,55,29.96,10.0,WNW,19.6,27.6,N/A,,Overcast,300,2014-01-17 11:15:00
5:35 AM,21.0,6.3,53,29.97,10.0,WNW,21.9,29.9,N/A,,Scattered Clouds,290,2014-01-17 11:35:00
5:55 AM,19.6,3.6,50,29.98,10.0,West,21.9,32.2,N/A,,Clear,280,2014-01-17 11:55:00
6:15 AM,19.0,4.1,52,29.99,10.0,WNW,24.2,33.4,N/A,,Clear,290,2014-01-17 12:15:00
6:35 AM,18.5,4.8,55,30.00,10.0,WNW,16.1,27.6,N/A,,Clear,300,2014-01-17 12:35:00
6:55 AM,18.1,5.0,57,30.01,10.0,WNW,10.4,21.9,N/A,,Clear,300,2014-01-17 12:55:00
7:15 AM,17.6,5.9,60,30.02,10.0,WNW,9.2,-,N/A,,Clear,300,2014-01-17 13:15:00
7:35 AM,18.5,6.6,60,30.02,10.0,WNW,11.5,-,N/A,,Scattered Clouds,290,2014-01-17 13:35:00
7:55 AM,19.2,6.4,58,30.02,10.0,WNW,12.7,-,N/A,,Overcast,290,2014-01-17 13:55:00
8:15 AM,19.0,7.2,60,30.03,10.0,WNW,11.5,-,N/A,,Overcast,290,2014-01-17 14:15:00
8:35 AM,18.7,9.9,69,30.04,4.0,WNW,16.1,-,N/A,Snow,Light Snow,290,2014-01-17 14:35:00
8:55 AM,18.7,12.7,78,30.05,10.0,West,12.7,-,N/A,,Overcast,270,2014-01-17 14:55:00
9:15 AM,18.1,9.9,70,30.06,7.0,West,23.0,32.2,N/A,Snow,Light Snow,280,2014-01-17 15:15:00
9:35 AM,18.5,9.9,69,30.07,10.0,West,21.9,28.8,N/A,,Overcast,280,2014-01-17 15:35:00
9:55 AM,18.9,6.6,59,30.07,10.0,WNW,20.7,26.5,N/A,,Overcast,290,2014-01-17 15:55:00
10:15 AM,19.2,6.3,57,30.08,10.0,WNW,13.8,20.7,N/A,,Overcast,290,2014-01-17 16:15:00
10:35 AM,19.4,7.0,59,30.08,10.0,West,12.7,-,N/A,,Overcast,280,2014-01-17 16:35:00
10:55 AM,19.6,7.5,60,30.08,10.0,WNW,9.2,16.1,N/A,,Mostly Cloudy,290,2014-01-17 16:55:00
11:15 AM,20.3,8.1,59,30.07,10.0,WNW,15.0,-,N/A,,Mostly Cloudy,300,2014-01-17 17:15:00
11:35 AM,21.0,8.4,58,30.07,10.0,West,13.8,21.9,N/A,,Mostly Cloudy,280,2014-01-17 17:35:00
11:55 AM,20.7,10.0,64,30.06,7.0,WNW,13.8,18.4,N/A,,Mostly Cloudy,290,2014-01-17 17:55:00
12:15 PM,21.2,9.3,60,30.06,10.0,NW,11.5,18.4,N/A,,Mostly Cloudy,310,2014-01-17 18:15:00
12:35 PM,21.7,9.7,60,30.06,10.0,West,13.8,-,N/A,,Mostly Cloudy,280,2014-01-17 18:35:00
12:55 PM,21.9,10.2,61,30.06,10.0,West,16.1,-,N/A,,Mostly Cloudy,260,2014-01-17 18:55:00
1:15 PM,21.7,8.6,57,30.07,10.0,WNW,17.3,26.5,N/A,,Mostly Cloudy,290,2014-01-17 19:15:00
1:35 PM,22.1,11.1,63,30.07,10.0,West,18.4,-,N/A,,Mostly Cloudy,280,2014-01-17 19:35:00
1:55 PM,21.7,9.9,60,30.08,10.0,West,13.8,24.2,N/A,,Overcast,270,2014-01-17 19:55:00
2:15 PM,22.1,9.5,58,30.09,10.0,West,18.4,21.9,N/A,,Overcast,280,2014-01-17 20:15:00
2:35 PM,21.9,9.0,58,30.10,10.0,West,17.3,21.9,N/A,,Overcast,280,2014-01-17 20:35:00
2:55 PM,22.6,10.6,60,30.10,10.0,West,13.8,18.4,N/A,,Overcast,270,2014-01-17 20:55:00
3:15 PM,22.3,10.8,61,30.11,10.0,West,12.7,18.4,N/A,,Overcast,280,2014-01-17 21:15:00
3:35 PM,21.6,11.1,64,30.12,10.0,WNW,8.1,-,N/A,,Overcast,290,2014-01-17 21:35:00
3:55 PM,21.9,12.0,66,30.13,10.0,WNW,9.2,-,N/A,,Overcast,290,2014-01-17 21:55:00
4:15 PM,21.2,11.8,67,30.13,10.0,West,12.7,-,N/A,,Overcast,270,2014-01-17 22:15:00
4:35 PM,21.2,12.2,68,30.13,10.0,West,9.2,-,N/A,,Overcast,260,2014-01-17 22:35:00
4:55 PM,21.0,12.6,70,30.14,10.0,West,8.1,-,N/A,,Overcast,270,2014-01-17 22:55:00
5:15 PM,20.8,13.8,74,30.14,10.0,WSW,8.1,-,N/A,,Overcast,250,2014-01-17 23:15:00
5:35 PM,21.0,15.1,78,30.15,5.0,West,8.1,-,N/A,Snow,Light Snow,270,2014-01-17 23:35:00
5:55 PM,21.2,14.2,74,30.15,10.0,WNW,9.2,-,N/A,,Overcast,290,2014-01-17 23:55:00
6:15 PM,21.2,13.1,71,30.15,10.0,WNW,10.4,-,N/A,,Overcast,290,2014-01-18 00:15:00
6:35 PM,21.2,13.3,72,30.15,10.0,West,9.2,16.1,N/A,,Overcast,280,2014-01-18 00:35:00
6:55 PM,21.2,14.0,74,30.15,10.0,West,10.4,-,N/A,,Overcast,280,2014-01-18 00:55:00
7:15 PM,21.2,14.2,74,30.16,10.0,West,8.1,-,N/A,Snow,Light Snow,270,2014-01-18 01:15:00
7:35 PM,21.2,14.5,75,30.16,10.0,West,8.1,-,N/A,,Overcast,280,2014-01-18 01:35:00
7:55 PM,21.6,13.1,70,30.16,10.0,WNW,8.1,-,N/A,,Overcast,290,2014-01-18 01:55:00
8:15 PM,21.7,12.0,66,30.16,10.0,WNW,9.2,-,N/A,,Overcast,290,2014-01-18 02:15:00
8:35 PM,21.2,11.8,67,30.16,10.0,West,8.1,-,N/A,,Overcast,280,2014-01-18 02:35:00
8:55 PM,19.6,11.7,71,30.16,10.0,West,4.6,-,N/A,,Scattered Clouds,270,2014-01-18 02:55:00
9:15 PM,19.6,12.0,72,30.16,10.0,West,3.5,-,N/A,,Scattered Clouds,260,2014-01-18 03:15:00
9:35 PM,19.8,12.2,72,30.16,10.0,WSW,3.5,-,N/A,,Scattered Clouds,240,2014-01-18 03:35:00
9:55 PM,19.2,12.6,75,30.16,10.0,SSW,3.5,-,N/A,,Clear,210,2014-01-18 03:55:00
10:15 PM,18.9,14.0,81,30.15,10.0,SSW,3.5,-,N/A,,Clear,210,2014-01-18 04:15:00
10:35 PM,18.1,13.5,82,30.15,10.0,SSW,4.6,-,N/A,,Clear,210,2014-01-18 04:35:00
10:55 PM,18.0,13.6,83,30.15,10.0,SW,4.6,-,N/A,,Clear,220,2014-01-18 04:55:00
11:15 PM,17.8,13.3,83,30.14,10.0,SW,3.5,-,N/A,,Clear,220,2014-01-18 05:15:00
11:35 PM,18.0,13.1,81,30.14,10.0,SW,3.5,-,N/A,,Clear,220,2014-01-18 05:35:00
11:55 PM,17.8,13.5,83,30.14,10.0,SSW,3.5,-,N/A,,Clear,210,2014-01-18 05:55:00